[[[{"header":{"parameterUnit":"kt","parameterCategory":2,"dx":1,"dy":1,"la1":30.253999710083008,"la2":30.299108505249023,"lo1":-89.0895004272461,"lo2":-89.04439544677734,"nx":28,"ny":28,"refTime":"2022-09-18T21:00:00:Z","depth":"0","parameterNumber":2,"parameterNumberName":"U-component_of_CURRENTS"},"data":[-0.1783,-0.1705,-0.1641,-0.1638,-0.1672,-0.1718,-0.1793,-0.1965,-0.2126,-0.2352,-0.2436,-0.2578,-0.2209,-0.1429,-0.0699,-0.0622,-0.0486,-0.0437,-0.0626,-0.0639,-0.0748,-0.0852,-0.0593,0.0202,0.0204,-0.0109,-0.0106,-0.0103,-0.1803,-0.1715,-0.1695,-0.1734,-0.1793,-0.1871,-0.2051,-0.2135,-0.2362,-0.2654,-0.2923,-0.2986,-0.2856,-0.2763,-0.2448,-0.2037,-0.2195,-0.1802,-0.1721,-0.1897,-0.2533,-0.2326,-0.1887,-0.1888,-0.1888,-0.1889,-0.1889,-0.189,-0.1818,-0.1784,-0.1774,-0.1799,-0.1891,-0.2004,-0.2066,-0.2297,-0.2524,-0.2867,-0.3117,-0.335,-0.3436,-0.3729,-0.3693,-0.331,-0.3749,-0.3165,-0.2993,-0.3182,-0.309,-0.3849,-0.3833,-0.3837,-0.384,-0.3843,-0.3845,0,-0.187,-0.1849,-0.1893,-0.1906,-0.1984,-0.2113,-0.2273,-0.2372,-0.2719,-0.294,-0.3263,-0.3478,-0.3806,-0.3896,-0.4135,-0.4244,-0.4015,-0.4291,-0.3777,-0.3019,-0.3036,-0.3104,-0.3964,-0.4001,-0.4005,-0.4009,-0.4011,-0.4013,-0.19,-0.1914,-0.2015,-0.2052,-0.2113,-0.2231,-0.234,-0.2606,-0.276,-0.3164,-0.3273,-0.3582,-0.3836,-0.416,-0.4305,-0.4524,-0.4368,-0.4392,-0.4291,-0.3726,-0.3503,-0.3603,-0.3662,-0.4063,-0.4056,-0.4051,-0.4047,0,-0.1891,-0.1981,-0.2086,-0.2256,-0.2308,-0.2377,-0.2627,-0.2747,-0.2977,-0.3208,-0.3287,-0.366,-0.3894,-0.414,-0.4381,-0.4456,-0.4418,-0.4657,-0.4347,-0.4315,-0.3793,-0.3584,-0.3614,-0.3672,-0.4709,-0.4708,-0.4707,0,-0.195,-0.2042,-0.2166,-0.2216,-0.2344,-0.2574,-0.2736,-0.2915,-0.3162,-0.3338,-0.3586,-0.3759,-0.399,-0.4176,-0.4294,-0.4442,-0.4518,-0.4507,-0.4517,-0.4267,-0.4235,-0.377,-0.3541,-0.4642,-0.464,-0.4639,-0.4637,0,-0.1917,-0.2128,-0.2238,-0.2322,-0.2608,-0.2691,-0.2861,-0.3138,-0.3274,-0.3518,-0.3637,-0.3873,-0.3972,-0.4121,-0.4267,-0.4234,-0.4471,-0.4449,-0.4471,-0.4465,-0.4241,-0.4208,-0.3819,-0.4635,-0.4635,-0.4634,-0.4633,0,-0.199,-0.2072,-0.2225,-0.2484,-0.2553,-0.2699,-0.3,-0.3171,-0.3428,-0.3546,-0.3733,-0.3849,-0.4021,-0.4007,-0.4224,-0.4136,-0.4219,-0.4275,-0.4284,-0.4157,-0.411,-0.4012,-0.4103,-0.3573,-0.4361,-0.4359,-0.4356,0,-0.1956,-0.2086,-0.2227,-0.2438,-0.2563,-0.2774,-0.2958,-0.3173,-0.3358,-0.3529,-0.3678,-0.3826,-0.3861,-0.3902,-0.4001,-0.4048,-0.4161,-0.4053,-0.4176,-0.4181,-0.4063,-0.4198,-0.3921,-0.4073,-0.4322,-0.4326,-0.4329,0,-0.1944,-0.2132,-0.2151,-0.225,-0.2538,-0.2659,-0.2865,-0.3111,-0.321,-0.3415,-0.3566,-0.3761,-0.3792,-0.3857,-0.3902,-0.3976,-0.4108,-0.3924,-0.3926,-0.3996,-0.4274,-0.4165,-0.4178,-0.4086,-0.409,-0.4093,-0.4302,0,-0.2006,-0.2117,-0.2149,-0.2362,-0.2499,-0.2614,-0.2839,-0.295,-0.308,-0.3223,-0.34,-0.3526,-0.3671,-0.3715,-0.3738,-0.3868,-0.3847,-0.382,-0.3775,-0.3872,-0.3951,-0.3973,-0.3691,-0.3689,-0.3688,-0.3687,0,0,-0.199,-0.2112,-0.2223,-0.2312,-0.2433,-0.2593,-0.2716,-0.2837,-0.3051,-0.312,-0.3136,-0.34,-0.3458,-0.3631,-0.3677,-0.3701,-0.3723,-0.3662,-0.3818,-0.3833,-0.3847,-0.3927,-0.3949,-0.3684,-0.3683,-0.3683,-0.3682,0,-0.2035,-0.2138,-0.219,-0.2305,-0.2464,-0.2615,-0.2638,-0.2836,-0.2911,-0.3083,-0.3143,-0.3247,-0.3394,-0.3493,-0.3552,-0.367,-0.3653,-0.3668,-0.3724,-0.3803,-0.382,-0.3835,-0.3917,-0.3938,-0.3679,-0.3679,-0.3679,0,-0.2068,-0.2189,-0.2234,-0.2433,-0.2533,-0.2675,-0.271,-0.2806,-0.2932,-0.297,-0.313,-0.3189,-0.3276,-0.3404,-0.3446,-0.3422,-0.3595,-0.3527,-0.3535,-0.3525,-0.3603,-0.3622,-0.3639,-0.3415,-0.3414,-0.3414,0,0,-0.2103,-0.2177,-0.2388,-0.2465,-0.2523,-0.2677,-0.2739,-0.282,-0.2939,-0.2975,-0.3069,-0.315,-0.3244,-0.3287,-0.3363,-0.3454,-0.3472,-0.3495,-0.3508,-0.3518,-0.3514,-0.3594,-0.3613,-0.3411,-0.3411,-0.3411,0,0,-0.2125,-0.2337,-0.2399,-0.2505,-0.2642,-0.2828,-0.2848,-0.2919,-0.3008,-0.2996,-0.308,-0.31,-0.3201,-0.3218,-0.3177,-0.335,-0.3297,-0.3306,-0.335,-0.3366,-0.3378,-0.3358,-0.3172,0,0,0,0,0,-0.2279,-0.2317,-0.2371,-0.2414,-0.2653,-0.281,-0.2838,-0.2934,-0.2936,-0.296,-0.3047,-0.3034,-0.3233,-0.3198,-0.3212,-0.3268,-0.3373,-0.3379,-0.3386,-0.3462,-0.3479,-0.3492,0,0,0,0,0,0,-0.2297,-0.2349,-0.2371,-0.2561,-0.2616,-0.2809,-0.2847,-0.2874,-0.2935,-0.2941,-0.3027,-0.3038,-0.3092,-0.319,-0.3203,-0.3256,-0.3168,-0.3375,-0.3381,-0.3386,-0.3468,-0.3481,-0.3493,0,0,0,0,0,-0.2311,-0.2354,-0.2715,-0.256,-0.2607,-0.2756,-0.2845,-0.2868,-0.2905,-0.3011,-0.3025,-0.2972,-0.3092,-0.3106,-0.3198,-0.325,-0.3159,-0.3164,-0.3379,-0.3384,-0.3388,-0.3474,0,0,0,0,0,0,-0.2323,-0.2362,-0.2726,-0.2744,-0.2544,-0.2745,-0.2781,-0.2862,-0.2971,-0.2989,-0.2959,-0.2962,-0.3092,-0.3103,-0.3113,-0.3249,-0.3151,-0.3156,-0.3159,-0.3383,-0.3386,-0.3389,0,0,0,0,0,0,-0.234,-0.2376,-0.2735,-0.2709,-0.2725,-0.2735,-0.2767,-0.2821,-0.2967,-0.291,-0.2919,-0.2959,-0.3051,-0.3101,-0.3109,-0.3191,-0.3146,-0.3151,-0.3154,-0.3156,-0.3385,-0.3388,0,0,0,0,0,0,-0.2357,-0.2388,-0.2705,-0.2717,-0.273,-0.2929,-0.2779,-0.2998,-0.3011,-0.29,-0.3009,-0.3008,-0.3046,-0.3057,-0.3106,-0.3185,-0.319,-0.3146,-0.3149,-0.3151,-0.3153,0,0,0,0,0,0,0,-0.237,-0.2146,-0.263,-0.2723,-0.2734,-0.2908,-0.2912,-0.2916,-0.3011,-0.301,-0.3009,-0.3009,-0.3119,-0.3124,-0.3129,-0.318,0,0,-0.3146,-0.3148,0,0,0,0,0,0,0,0,-0.2135,-0.2143,-0.263,-0.2634,-0.2638,-0.2909,-0.2912,-0.2915,-0.3011,-0.301,-0.301,-0.3009,-0.312,-0.3124,-0.3129,0,0,0,0,0,0,0,0,0,0,0,0,0,0,0,-0.2631,-0.2634,0,-0.2909,-0.2912,-0.2915,-0.3011,-0.301,-0.301,-0.3009,-0.3121,-0.3125,-0.3128,0,0,0,0,0,0,0,0,0,0,0,0,0,0,0,0,0,0,0,0,0,0,0,0,0,0,0,0,0,0,0,0,0,0,0,0,0,0,0,0,0,0,0,0,0,0,0,0,0,0,0,0,0,0,0,0,0,0,0,0,0,0,0,0,0,0,0,0,0]}],[{"header":{"parameterUnit":"kt","parameterCategory":2,"dx":1,"dy":1,"la1":30.253999710083008,"la2":30.299108505249023,"lo1":-89.0895004272461,"lo2":-89.04439544677734,"nx":28,"ny":28,"refTime":"2022-09-18T21:00:00:Z","depth":"0","parameterNumber":3,"parameterNumberName":"V-component_of_CURRENTS"},"data":[-0.4416,-0.4513,-0.4591,-0.473,-0.4827,-0.4909,-0.4938,-0.5003,-0.4997,-0.4906,-0.4792,-0.4591,-0.3748,-0.2762,-0.1693,-0.1463,-0.0942,-0.088,-0.062,-0.1348,-0.1427,-0.1502,-0.1396,-0.0742,-0.0741,0.0322,0.0331,0.0338,-0.4413,-0.4514,-0.4625,-0.4798,-0.4884,-0.4948,-0.5011,-0.5033,-0.5078,-0.5059,-0.5005,-0.4696,-0.4127,-0.355,-0.2753,-0.2215,-0.1979,-0.1888,-0.1752,-0.1599,-0.253,-0.2452,-0.2013,-0.2013,-0.2013,-0.2013,-0.2014,-0.2014,-0.4448,-0.453,-0.4705,-0.4823,-0.4922,-0.5003,-0.5022,-0.5086,-0.5101,-0.5077,-0.4997,-0.4874,-0.4465,-0.3945,-0.359,-0.2906,-0.2992,-0.2783,-0.2694,-0.261,-0.2295,-0.332,-0.3034,-0.3035,-0.3036,-0.3037,-0.3038,0,-0.4502,-0.461,-0.4722,-0.4871,-0.4958,-0.5038,-0.5071,-0.5075,-0.5069,-0.5083,-0.5009,-0.4923,-0.4554,-0.426,-0.3883,-0.3699,-0.3335,-0.3559,-0.326,-0.3046,-0.2894,-0.26,-0.3729,-0.3583,-0.3587,-0.359,-0.3593,-0.3594,-0.459,-0.4649,-0.4865,-0.4928,-0.4984,-0.5051,-0.5065,-0.507,-0.5074,-0.5018,-0.501,-0.4851,-0.4753,-0.4372,-0.4136,-0.392,-0.369,-0.3671,-0.3733,-0.3436,-0.3253,-0.3134,-0.2936,-0.3642,-0.3636,-0.3631,-0.3627,0,-0.4647,-0.4744,-0.4841,-0.4982,-0.5015,-0.5058,-0.5069,-0.508,-0.5053,-0.5044,-0.5043,-0.4967,-0.4789,-0.4656,-0.4457,-0.4347,-0.3938,-0.4086,-0.4045,-0.3947,-0.3479,-0.3374,-0.2969,-0.2707,-0.3884,-0.3879,-0.3874,0,-0.4734,-0.4773,-0.4961,-0.4982,-0.5034,-0.506,-0.5064,-0.5046,-0.5029,-0.5028,-0.503,-0.5004,-0.4886,-0.4756,-0.4671,-0.4421,-0.4483,-0.431,-0.4216,-0.4167,-0.4144,-0.3826,-0.3709,-0.4452,-0.4453,-0.4453,-0.4454,0,-0.4777,-0.4887,-0.4943,-0.4955,-0.5011,-0.5019,-0.5009,-0.5004,-0.498,-0.4995,-0.4988,-0.4977,-0.4904,-0.4838,-0.4662,-0.4695,-0.4493,-0.4485,-0.4268,-0.4254,-0.4134,-0.4106,-0.38,-0.4454,-0.4454,-0.4455,-0.4455,0,-0.4802,-0.489,-0.495,-0.4996,-0.4995,-0.5018,-0.4998,-0.4981,-0.4976,-0.4953,-0.4966,-0.4941,-0.4909,-0.4864,-0.4738,-0.4747,-0.4663,-0.4573,-0.4565,-0.4354,-0.4215,-0.4084,-0.4061,-0.3751,-0.4424,-0.4425,-0.4425,0,-0.476,-0.4878,-0.4916,-0.4965,-0.4983,-0.4949,-0.4932,-0.4941,-0.4913,-0.4924,-0.4873,-0.4841,-0.4819,-0.478,-0.4753,-0.461,-0.4599,-0.4626,-0.4417,-0.4413,-0.4242,-0.4247,-0.4165,-0.4077,-0.4428,-0.4427,-0.4427,0,-0.474,-0.486,-0.4872,-0.4879,-0.488,-0.4931,-0.4909,-0.4897,-0.4889,-0.4887,-0.4872,-0.4787,-0.4796,-0.4727,-0.4657,-0.4613,-0.4596,-0.453,-0.4524,-0.4511,-0.4469,-0.4274,-0.4253,-0.4502,-0.4503,-0.4503,-0.443,0,-0.4744,-0.4774,-0.4826,-0.4839,-0.4874,-0.4898,-0.4868,-0.489,-0.4836,-0.482,-0.4793,-0.4749,-0.468,-0.4597,-0.4556,-0.451,-0.447,-0.4395,-0.4339,-0.4386,-0.4345,-0.4344,-0.4329,-0.4327,-0.4325,-0.4324,0,0,-0.4624,-0.4685,-0.4728,-0.4779,-0.477,-0.4748,-0.4761,-0.4766,-0.4792,-0.4788,-0.4742,-0.4646,-0.456,-0.4492,-0.4489,-0.4446,-0.4403,-0.438,-0.4362,-0.4367,-0.4371,-0.4334,-0.4335,-0.4321,-0.432,-0.4319,-0.4319,0,-0.4622,-0.4625,-0.4691,-0.4709,-0.4732,-0.4713,-0.4732,-0.4739,-0.4716,-0.4744,-0.4655,-0.4634,-0.4531,-0.4453,-0.438,-0.4435,-0.4281,-0.433,-0.4417,-0.4348,-0.4355,-0.4361,-0.4327,-0.4329,-0.4315,-0.4315,-0.4315,0,-0.4515,-0.454,-0.4559,-0.4599,-0.4598,-0.4614,-0.4567,-0.4624,-0.4612,-0.4556,-0.4564,-0.4515,-0.4398,-0.4359,-0.4331,-0.4295,-0.4215,-0.4213,-0.422,-0.4268,-0.4195,-0.4204,-0.4211,-0.4116,-0.4115,-0.4115,0,0,-0.4489,-0.4551,-0.4525,-0.4577,-0.4582,-0.4561,-0.4589,-0.4562,-0.4574,-0.4578,-0.4529,-0.4452,-0.4378,-0.4343,-0.4294,-0.4292,-0.4255,-0.4193,-0.4202,-0.421,-0.4262,-0.4192,-0.42,-0.4114,-0.4114,-0.4114,0,0,-0.4466,-0.4467,-0.441,-0.4468,-0.4483,-0.4486,-0.4538,-0.4508,-0.4537,-0.4513,-0.4412,-0.4395,-0.4372,-0.4313,-0.4324,-0.4173,-0.4128,-0.4128,-0.4211,-0.4222,-0.4231,-0.4302,-0.4123,0,0,0,0,0,-0.44,-0.4472,-0.4419,-0.4421,-0.4435,-0.4504,-0.4513,-0.4476,-0.442,-0.4471,-0.4448,-0.4307,-0.4275,-0.4285,-0.4274,-0.4177,-0.4104,-0.4106,-0.4107,-0.4213,-0.4225,-0.4235,0,0,0,0,0,0,-0.4401,-0.4401,-0.4419,-0.4416,-0.4419,-0.45,-0.4391,-0.4385,-0.4413,-0.4401,-0.4327,-0.4305,-0.4223,-0.4279,-0.4272,-0.418,-0.4125,-0.4104,-0.4106,-0.4107,-0.4217,-0.4227,-0.4235,0,0,0,0,0,-0.4401,-0.4401,-0.4417,-0.4417,-0.442,-0.4393,-0.4387,-0.438,-0.4404,-0.4308,-0.4288,-0.4373,-0.4228,-0.4214,-0.4274,-0.4184,-0.4129,-0.4127,-0.4105,-0.4107,-0.4108,-0.4222,0,0,0,0,0,0,-0.4401,-0.4413,-0.4418,-0.4421,-0.4369,-0.4389,-0.4384,-0.4377,-0.4306,-0.4292,-0.4344,-0.4335,-0.4233,-0.4221,-0.421,-0.4189,-0.4133,-0.413,-0.4129,-0.4106,-0.4107,-0.4108,0,0,0,0,0,0,-0.4413,-0.4414,-0.442,-0.4361,-0.4357,-0.4386,-0.4381,-0.4373,-0.4302,-0.4345,-0.4337,-0.434,-0.4202,-0.4226,-0.4218,-0.4213,-0.4135,-0.4133,-0.4132,-0.4131,-0.4107,-0.4108,0,0,0,0,0,0,-0.4414,-0.4416,-0.436,-0.4357,-0.4353,-0.4378,-0.4374,-0.4361,-0.4341,-0.4346,-0.4328,-0.4322,-0.4206,-0.4199,-0.4223,-0.4223,-0.4216,-0.4135,-0.4134,-0.4133,-0.4132,0,0,0,0,0,0,0,-0.4415,-0.4396,-0.4402,-0.4354,-0.435,-0.4442,-0.4443,-0.4444,-0.434,-0.4335,-0.4329,-0.4325,-0.4147,-0.4145,-0.4143,-0.4232,0,0,-0.4135,-0.4134,0,0,0,0,0,0,0,0,-0.4396,-0.4396,-0.4402,-0.4402,-0.4403,-0.4442,-0.4443,-0.4444,-0.4339,-0.4335,-0.4331,-0.4327,-0.4147,-0.4145,-0.4143,0,0,0,0,0,0,0,0,0,0,0,0,0,0,0,-0.4402,-0.4402,0,-0.4442,-0.4443,-0.4444,-0.4338,-0.4335,-0.4331,-0.4328,-0.4146,-0.4145,-0.4143,0,0,0,0,0,0,0,0,0,0,0,0,0,0,0,0,0,0,0,0,0,0,0,0,0,0,0,0,0,0,0,0,0,0,0,0,0,0,0,0,0,0,0,0,0,0,0,0,0,0,0,0,0,0,0,0,0,0,0,0,0,0,0,0,0,0,0,0,0]}]],[[{"header":{"parameterUnit":"kt","parameterCategory":2,"dx":1,"dy":1,"la1":30.253999710083008,"la2":30.299108505249023,"lo1":-89.0895004272461,"lo2":-89.04439544677734,"nx":28,"ny":28,"refTime":"2022-09-18T21:00:00:Z","depth":"2","parameterNumber":2,"parameterNumberName":"U-component_of_CURRENTS"},"data":[-0.2541,-0.2441,-0.2467,-0.2317,-0.2298,-0.211,-0.2014,-0.1798,-0.1638,-0.1276,-0.1075,-0.1008,-0.0882,-0.0629,-0.0471,-0.0346,-0.0555,-0.0292,-0.092,-0.0885,-0.0939,-0.0982,-0.1006,0,0,0,0,0,-0.2698,-0.2706,-0.2667,-0.2586,-0.2513,-0.2558,-0.2411,-0.2245,-0.1991,-0.1823,-0.1599,-0.1191,-0.0961,-0.0907,-0.0789,-0.0776,-0.0761,-0.0703,-0.0629,-0.0682,-0.0732,-0.0717,-0.0194,-0.0194,-0.0194,-0.0194,0,0,-0.299,-0.293,-0.2909,-0.2829,-0.2781,-0.2706,-0.2575,-0.2488,-0.2294,-0.203,-0.1983,-0.1688,-0.152,-0.1363,-0.1288,-0.1278,-0.144,-0.1306,-0.1325,-0.1352,-0.1363,-0.1336,-0.1015,-0.1019,-0.1023,-0.1026,-0.1029,0,-0.3174,-0.3191,-0.3125,-0.3064,-0.2987,-0.2893,-0.2792,-0.2692,-0.2592,-0.2444,-0.2229,-0.2077,-0.1936,-0.1712,-0.1711,-0.1655,-0.1779,-0.1647,-0.2182,-0.1582,-0.1549,-0.1524,-0.1564,-0.1273,-0.1279,-0.1284,-0.1287,-0.1289,-0.3401,-0.3337,-0.3279,-0.3232,-0.3192,-0.3074,-0.299,-0.2916,-0.2817,-0.2634,-0.2541,-0.24,-0.2249,-0.2125,-0.2145,-0.2097,-0.2252,-0.1785,-0.1832,-0.2335,-0.2306,-0.2323,-0.2338,-0.1356,-0.1347,-0.134,-0.1335,0,-0.3507,-0.351,-0.3395,-0.3325,-0.3292,-0.3191,-0.3087,-0.2979,-0.2909,-0.2747,-0.2703,-0.2604,-0.2498,-0.2523,-0.243,-0.2463,-0.2392,-0.2365,-0.203,-0.1953,-0.2347,-0.2359,-0.2189,-0.2186,-0.2183,-0.2181,-0.2179,0,-0.3646,-0.3561,-0.3531,-0.3457,-0.3342,-0.3307,-0.3179,-0.3126,-0.3025,-0.2904,-0.2898,-0.2765,-0.2784,-0.271,-0.2706,-0.2603,-0.2602,-0.2566,-0.252,-0.2243,-0.2215,-0.2663,-0.2673,-0.2603,-0.2605,-0.2607,-0.2608,0,-0.3733,-0.3646,-0.358,-0.353,-0.3413,-0.3392,-0.3337,-0.325,-0.3163,-0.3051,-0.2972,-0.2934,-0.2825,-0.2819,-0.2762,-0.2803,-0.265,-0.2667,-0.258,-0.2573,-0.2254,-0.2223,-0.261,-0.2611,-0.2611,-0.2612,-0.2613,0,-0.3795,-0.3739,-0.3659,-0.3546,-0.3503,-0.3449,-0.332,-0.3257,-0.3173,-0.3131,-0.311,-0.3047,-0.2978,-0.3,-0.2903,-0.2958,-0.2898,-0.2845,-0.2835,-0.2797,-0.2762,-0.2305,-0.2123,-0.2685,-0.2687,-0.2689,-0.269,0,-0.3867,-0.3773,-0.3721,-0.3632,-0.3541,-0.35,-0.3431,-0.3383,-0.332,-0.3213,-0.3202,-0.3086,-0.3142,-0.3062,-0.3058,-0.2956,-0.2913,-0.2995,-0.283,-0.2824,-0.2822,-0.2733,-0.2395,-0.2168,-0.2711,-0.2709,-0.2708,0,-0.3848,-0.3747,-0.3729,-0.3664,-0.357,-0.3513,-0.3489,-0.3406,-0.3349,-0.3315,-0.324,-0.3182,-0.3154,-0.3115,-0.3058,-0.3021,-0.2937,-0.3011,-0.3008,-0.2948,-0.2805,-0.2764,-0.2745,-0.2951,-0.295,-0.2949,-0.2724,0,-0.3782,-0.3718,-0.3721,-0.36,-0.3563,-0.3543,-0.3441,-0.3409,-0.3386,-0.3341,-0.3287,-0.3213,-0.3147,-0.3106,-0.3091,-0.3024,-0.2999,-0.3009,-0.3026,-0.2982,-0.288,-0.2867,-0.3021,-0.3021,-0.3021,-0.3021,0,0,-0.3764,-0.367,-0.3597,-0.3543,-0.3516,-0.3486,-0.345,-0.3402,-0.3358,-0.3351,-0.3338,-0.3241,-0.32,-0.3132,-0.3095,-0.3066,-0.303,-0.3078,-0.2992,-0.2988,-0.2985,-0.2889,-0.2876,-0.3021,-0.3021,-0.3021,-0.3021,0,-0.3689,-0.3602,-0.3582,-0.3525,-0.3506,-0.3457,-0.3466,-0.341,-0.3385,-0.3348,-0.3328,-0.3294,-0.3222,-0.316,-0.3129,-0.3074,-0.3046,-0.3038,-0.3039,-0.2992,-0.2989,-0.2986,-0.2891,-0.2879,-0.3021,-0.3021,-0.3021,0,-0.3591,-0.3536,-0.3526,-0.3424,-0.3428,-0.3373,-0.3379,-0.3405,-0.337,-0.337,-0.3326,-0.3303,-0.3252,-0.3188,-0.3168,-0.3167,-0.3059,-0.3098,-0.3096,-0.3122,-0.3076,-0.3071,-0.3067,-0.3128,-0.3129,-0.313,0,0,-0.3534,-0.3495,-0.3408,-0.3409,-0.3382,-0.3376,-0.3382,-0.3377,-0.3368,-0.3366,-0.3331,-0.3301,-0.3262,-0.3244,-0.3204,-0.3162,-0.3136,-0.3115,-0.3109,-0.3106,-0.3129,-0.3083,-0.3077,-0.3132,-0.3132,-0.3133,0,0,-0.354,-0.344,-0.3424,-0.3365,-0.335,-0.3325,-0.3353,-0.3347,-0.3334,-0.3369,-0.3334,-0.3329,-0.3301,-0.3272,-0.3313,-0.3183,-0.3197,-0.319,-0.3216,-0.3209,-0.3204,-0.3245,-0.3286,0,0,0,0,0,-0.3485,-0.3447,-0.3432,-0.3422,-0.335,-0.3325,-0.3321,-0.3322,-0.3357,-0.334,-0.3341,-0.3334,-0.3257,-0.3294,-0.329,-0.3247,-0.3168,-0.3162,-0.3156,-0.318,-0.3173,-0.3167,0,0,0,0,0,0,-0.3481,-0.346,-0.3436,-0.3403,-0.3392,-0.3324,-0.333,-0.3327,-0.3356,-0.3356,-0.3334,-0.3331,-0.3298,-0.3295,-0.3292,-0.325,-0.3287,-0.3166,-0.316,-0.3156,-0.3177,-0.3171,-0.3167,0,0,0,0,0,-0.3478,-0.3462,-0.333,-0.3406,-0.3395,-0.3397,-0.333,-0.3328,-0.334,-0.3317,-0.3314,-0.335,-0.3297,-0.3295,-0.3293,-0.3252,-0.3289,-0.3288,-0.3162,-0.3158,-0.3154,-0.3174,0,0,0,0,0,0,-0.3476,-0.3447,-0.333,-0.333,-0.3419,-0.3401,-0.3389,-0.3328,-0.3298,-0.3298,-0.3329,-0.3329,-0.3297,-0.3295,-0.3293,-0.3251,-0.3291,-0.329,-0.3289,-0.3159,-0.3156,-0.3153,0,0,0,0,0,0,-0.3459,-0.3445,-0.3329,-0.3344,-0.3345,-0.3405,-0.3394,-0.3378,-0.3297,-0.3307,-0.3309,-0.333,-0.3318,-0.3295,-0.3293,-0.3269,-0.3292,-0.3291,-0.329,-0.329,-0.3156,-0.3154,0,0,0,0,0,0,-0.3455,-0.3444,-0.3342,-0.3344,-0.3345,-0.3338,-0.3393,-0.3319,-0.3308,-0.3307,-0.331,-0.3311,-0.332,-0.3317,-0.3294,-0.327,-0.3269,-0.3292,-0.3292,-0.3291,-0.3291,0,0,0,0,0,0,0,-0.3452,-0.3504,-0.3346,-0.3343,-0.3344,-0.334,-0.3338,-0.3336,-0.3308,-0.3309,-0.331,-0.3311,-0.3299,-0.3298,-0.3297,-0.327,0,0,-0.3292,-0.3292,0,0,0,0,0,0,0,0,-0.3511,-0.3506,-0.3346,-0.3347,-0.3348,-0.334,-0.3338,-0.3337,-0.3308,-0.3309,-0.331,-0.3311,-0.3299,-0.3298,-0.3297,0,0,0,0,0,0,0,0,0,0,0,0,0,0,0,-0.3346,-0.3347,0,-0.3339,-0.3338,-0.3337,-0.3309,-0.3309,-0.331,-0.331,-0.3298,-0.3298,-0.3297,0,0,0,0,0,0,0,0,0,0,0,0,0,0,0,0,0,0,0,0,0,0,0,0,0,0,0,0,0,0,0,0,0,0,0,0,0,0,0,0,0,0,0,0,0,0,0,0,0,0,0,0,0,0,0,0,0,0,0,0,0,0,0,0,0,0,0,0,0]}],[{"header":{"parameterUnit":"kt","parameterCategory":2,"dx":1,"dy":1,"la1":30.253999710083008,"la2":30.299108505249023,"lo1":-89.0895004272461,"lo2":-89.04439544677734,"nx":28,"ny":28,"refTime":"2022-09-18T21:00:00:Z","depth":"2","parameterNumber":3,"parameterNumberName":"V-component_of_CURRENTS"},"data":[0.0972,0.0856,0.0781,0.057,0.0482,0.0333,0.0245,0.0158,0.0125,0.0021,0.0192,0.045,0.0776,0.098,0.1096,0.1247,0.1276,0.1193,0.1268,0.1406,0.1414,0.1654,0.1461,0,0,0,0,0,0.0992,0.0922,0.0818,0.0656,0.0532,0.0509,0.0358,0.0286,0.0165,0.0159,0.015,0.04,0.0692,0.0916,0.1193,0.1309,0.1329,0.1351,0.1473,0.149,0.1505,0.1366,0.1342,0.1341,0.1339,0.1338,0,0,0.1022,0.0966,0.0842,0.0729,0.0636,0.0507,0.0435,0.0358,0.027,0.0251,0.0253,0.0382,0.0605,0.0935,0.103,0.1224,0.1297,0.1545,0.1557,0.1568,0.143,0.1296,0.1423,0.1423,0.1423,0.1423,0.1423,0,0.0999,0.0969,0.0871,0.0743,0.0683,0.0579,0.0532,0.0477,0.047,0.0455,0.0417,0.0435,0.0591,0.081,0.1067,0.1203,0.156,0.1569,0.1621,0.1655,0.153,0.1609,0.1599,0.1726,0.1727,0.1728,0.1729,0.173,0.1011,0.0944,0.0799,0.074,0.0708,0.0666,0.0627,0.0632,0.061,0.0645,0.0633,0.0724,0.0718,0.0969,0.1153,0.1384,0.1457,0.1606,0.16,0.1516,0.1598,0.1585,0.1571,0.1746,0.1744,0.1742,0.1741,0,0.1015,0.0922,0.081,0.0704,0.0677,0.0665,0.0622,0.0627,0.0699,0.0714,0.0757,0.0849,0.0938,0.1067,0.1348,0.1453,0.1612,0.1635,0.1557,0.163,0.1603,0.1585,0.1727,0.1722,0.1719,0.1716,0.1713,0,0.099,0.0921,0.0793,0.072,0.0682,0.0619,0.0648,0.0652,0.071,0.0719,0.0847,0.084,0.1056,0.1157,0.1308,0.1409,0.1551,0.1486,0.1581,0.1592,0.1576,0.1779,0.1779,0.1754,0.1752,0.175,0.1748,0,0.1014,0.085,0.0776,0.0705,0.0555,0.0577,0.0549,0.0573,0.0567,0.0714,0.0761,0.0904,0.0968,0.1158,0.1233,0.1267,0.1453,0.1571,0.1545,0.1537,0.1715,0.1714,0.1746,0.1746,0.1745,0.1744,0.1744,0,0.0977,0.0854,0.0755,0.0615,0.0585,0.0548,0.0513,0.0487,0.0554,0.0613,0.0701,0.0809,0.0853,0.0849,0.1062,0.1025,0.12,0.1277,0.1296,0.1265,0.1383,0.157,0.1518,0.1532,0.1529,0.1526,0.1524,0,0.1004,0.0842,0.0731,0.0636,0.0532,0.0483,0.0431,0.0437,0.0467,0.0535,0.0573,0.07,0.0668,0.0787,0.0811,0.1031,0.1084,0.0952,0.1509,0.1523,0.1338,0.1253,0.1268,0.148,0.149,0.1494,0.1496,0,0.0954,0.0737,0.0725,0.0655,0.0527,0.0509,0.0451,0.0441,0.0477,0.0484,0.0567,0.0601,0.073,0.083,0.0941,0.0974,0.1031,0.1161,0.1177,0.1223,0.1407,0.1231,0.1238,0.1205,0.1208,0.121,0.147,0,0.0815,0.0706,0.0698,0.0543,0.0522,0.0537,0.0453,0.0473,0.0503,0.0527,0.0661,0.0768,0.0965,0.0951,0.1046,0.1122,0.1252,0.1361,0.1457,0.139,0.1516,0.1535,0.1392,0.1397,0.1402,0.1406,0,0,0.0817,0.0669,0.059,0.0514,0.0493,0.0528,0.0513,0.0492,0.0615,0.0682,0.0714,0.0967,0.1115,0.122,0.1167,0.1286,0.1447,0.1351,0.1419,0.1419,0.142,0.1534,0.1547,0.1414,0.1416,0.1418,0.1419,0,0.0729,0.0595,0.0551,0.0515,0.0531,0.0499,0.0536,0.0558,0.0599,0.069,0.0826,0.0957,0.1211,0.1276,0.1361,0.1348,0.157,0.1441,0.1294,0.1454,0.1447,0.1442,0.1551,0.1559,0.1431,0.143,0.143,0,0.065,0.0552,0.0527,0.042,0.0458,0.0409,0.0486,0.0567,0.0554,0.0796,0.0877,0.1043,0.1256,0.1365,0.1469,0.1522,0.1688,0.1648,0.1629,0.1635,0.1809,0.18,0.1792,0.1889,0.1889,0.1889,0,0,0.0593,0.0507,0.0439,0.0406,0.0395,0.0447,0.0478,0.0536,0.0657,0.0733,0.0888,0.1081,0.1227,0.1362,0.1523,0.1668,0.1803,0.1688,0.1667,0.1648,0.1642,0.181,0.1802,0.1889,0.1889,0.1889,0,0,0.0629,0.0485,0.048,0.0356,0.041,0.0425,0.0469,0.0515,0.0677,0.0746,0.0932,0.1007,0.1207,0.1369,0.1343,0.1526,0.1633,0.1646,0.1376,0.1353,0.1333,0.1269,0.1463,0,0,0,0,0,0.0574,0.0478,0.0472,0.045,0.036,0.0393,0.0399,0.0473,0.0531,0.0583,0.0766,0.0897,0.136,0.1342,0.1407,0.1382,0.189,0.189,0.1889,0.158,0.1553,0.153,0,0,0,0,0,0,0.0565,0.0529,0.0478,0.046,0.0444,0.0391,0.0423,0.0442,0.0531,0.0552,0.0839,0.09,0.1023,0.1323,0.1378,0.1349,0.1444,0.189,0.189,0.1889,0.1571,0.1549,0.153,0,0,0,0,0,0.0558,0.053,0.0346,0.0467,0.0453,0.0525,0.0429,0.0445,0.0543,0.0739,0.0798,0.0616,0.1013,0.1084,0.1357,0.1317,0.1407,0.1427,0.189,0.1889,0.1889,0.156,0,0,0,0,0,0,0.0554,0.0561,0.0347,0.0351,0.052,0.0538,0.0533,0.0447,0.0736,0.078,0.0522,0.0535,0.1006,0.1062,0.1114,0.1291,0.1377,0.1397,0.141,0.1889,0.1889,0.1889,0,0,0,0,0,0,0.0579,0.0561,0.0349,0.041,0.0421,0.055,0.0545,0.0736,0.0751,0.0508,0.0521,0.0527,0.1057,0.1046,0.1088,0.1372,0.1354,0.1373,0.1387,0.1395,0.1889,0.1889,0,0,0,0,0,0,0.0575,0.056,0.041,0.0418,0.0428,0.0468,0.074,0.0721,0.0548,0.0504,0.0563,0.057,0.1047,0.1084,0.1069,0.1333,0.1362,0.1354,0.1368,0.1377,0.1383,0,0,0,0,0,0,0,0.0572,0.0623,0.0331,0.0424,0.0433,0.038,0.0381,0.0381,0.055,0.0556,0.0562,0.0567,0.1242,0.1264,0.1285,0.13,0,0,0.1352,0.1362,0,0,0,0,0,0,0,0,0.0634,0.0625,0.0331,0.0332,0.0333,0.038,0.0381,0.0381,0.0551,0.0556,0.056,0.0565,0.1248,0.1265,0.1283,0,0,0,0,0,0,0,0,0,0,0,0,0,0,0,0.0331,0.0332,0,0.038,0.0381,0.0381,0.0551,0.0555,0.0559,0.0563,0.1253,0.1267,0.1282,0,0,0,0,0,0,0,0,0,0,0,0,0,0,0,0,0,0,0,0,0,0,0,0,0,0,0,0,0,0,0,0,0,0,0,0,0,0,0,0,0,0,0,0,0,0,0,0,0,0,0,0,0,0,0,0,0,0,0,0,0,0,0,0,0,0,0,0,0]}]],[[{"header":{"parameterUnit":"kt","parameterCategory":2,"dx":1,"dy":1,"la1":30.253999710083008,"la2":30.299108505249023,"lo1":-89.0895004272461,"lo2":-89.04439544677734,"nx":28,"ny":28,"refTime":"2022-09-18T21:00:00:Z","depth":"4","parameterNumber":2,"parameterNumberName":"U-component_of_CURRENTS"},"data":[-0.0906,-0.0885,-0.0851,-0.0734,-0.0681,-0.0658,-0.07,-0.0789,-0.075,-0.085,-0.0799,-0.0868,-0.0799,-0.0871,-0.0741,-0.0748,-0.0917,-0.083,-0.0826,-0.1189,-0.1217,-0.1242,-0.1229,0,0,0,0,0,-0.0948,-0.0902,-0.0893,-0.0875,-0.087,-0.0869,-0.0949,-0.1022,-0.1119,-0.1001,-0.1065,-0.0969,-0.0882,-0.0895,-0.0792,-0.0938,-0.1055,-0.0819,-0.1125,-0.1206,-0.1237,-0.1215,0,0,0,0,0,0,-0.0993,-0.0984,-0.1002,-0.102,-0.103,-0.1001,-0.1064,-0.1057,-0.1087,-0.1182,-0.1124,-0.1115,-0.1169,-0.1079,-0.1071,-0.1035,-0.103,-0.1069,-0.1105,-0.1136,-0.1091,-0.1012,-0.0676,0,0,0,0,0,-0.1037,-0.1072,-0.1105,-0.1121,-0.1154,-0.1184,-0.1234,-0.1236,-0.1349,-0.1439,-0.1352,-0.1321,-0.1228,-0.1254,-0.1213,-0.1225,-0.1553,-0.142,-0.1438,-0.1511,-0.148,-0.1465,-0.1487,-0.1355,-0.1359,-0.1362,-0.1363,0,-0.1098,-0.1116,-0.1208,-0.1226,-0.1277,-0.1342,-0.1373,-0.15,-0.1526,-0.1592,-0.1576,-0.1558,-0.16,-0.1438,-0.1552,-0.1532,-0.151,-0.1501,-0.1579,-0.1531,-0.1505,-0.152,-0.1533,-0.1388,-0.1386,-0.1384,-0.1382,0,-0.1127,-0.12,-0.1256,-0.1366,-0.1397,-0.1437,-0.1541,-0.1573,-0.1678,-0.1705,-0.1729,-0.1832,-0.1795,-0.1884,-0.1888,-0.1869,-0.1814,-0.1717,-0.1982,-0.196,-0.1576,-0.1579,-0.143,-0.142,-0.1413,-0.1406,-0.1401,0,-0.1207,-0.1251,-0.1362,-0.138,-0.1436,-0.155,-0.1608,-0.1695,-0.1794,-0.1824,-0.1962,-0.1956,-0.2098,-0.2097,-0.2118,-0.1978,-0.2096,-0.1867,-0.1822,-0.2111,-0.2112,-0.2062,-0.2058,-0.2108,-0.2109,-0.2109,-0.211,0,-0.1244,-0.1354,-0.1399,-0.1439,-0.1569,-0.1611,-0.168,-0.1804,-0.185,-0.1964,-0.1981,-0.2108,-0.2111,-0.2146,-0.2139,-0.217,-0.2118,-0.2148,-0.1887,-0.1869,-0.2065,-0.206,-0.2111,-0.2111,-0.2111,-0.2112,-0.2112,0,-0.1327,-0.1373,-0.1439,-0.1544,-0.1569,-0.163,-0.1735,-0.1807,-0.1926,-0.1973,-0.2062,-0.2103,-0.2183,-0.217,-0.2205,-0.2222,-0.2174,-0.2158,-0.2154,-0.1892,-0.1841,-0.2009,-0.207,-0.207,-0.2071,-0.2071,-0.2071,0,-0.1328,-0.1394,-0.1466,-0.1544,-0.1585,-0.1664,-0.1745,-0.1826,-0.1894,-0.1966,-0.2031,-0.2088,-0.2127,-0.2142,-0.2183,-0.2174,-0.217,-0.2195,-0.2083,-0.2078,-0.1866,-0.1867,-0.2181,-0.2076,-0.2075,-0.2075,-0.2075,0,-0.1326,-0.144,-0.1448,-0.1486,-0.1586,-0.1608,-0.1708,-0.178,-0.1833,-0.192,-0.1981,-0.2074,-0.2089,-0.2109,-0.2132,-0.2154,-0.2169,-0.2123,-0.212,-0.2076,-0.2132,-0.19,-0.1875,-0.2179,-0.2179,-0.218,-0.2078,0,-0.1368,-0.1424,-0.1445,-0.1519,-0.1561,-0.1589,-0.1652,-0.1709,-0.1766,-0.1815,-0.1897,-0.1932,-0.1986,-0.2021,-0.2026,-0.2088,-0.2047,-0.204,-0.2005,-0.2061,-0.2006,-0.2004,-0.1999,-0.1997,-0.1996,-0.1994,0,0,-0.1337,-0.1391,-0.1427,-0.1466,-0.1497,-0.1533,-0.1569,-0.1624,-0.169,-0.1725,-0.1734,-0.1842,-0.1861,-0.1941,-0.1977,-0.1978,-0.195,-0.1984,-0.2036,-0.2041,-0.2045,-0.1996,-0.1996,-0.1991,-0.1991,-0.199,-0.199,0,-0.1334,-0.1389,-0.1419,-0.1449,-0.1484,-0.1517,-0.153,-0.1585,-0.163,-0.1694,-0.1724,-0.1772,-0.1828,-0.1864,-0.1883,-0.1952,-0.1911,-0.1967,-0.2025,-0.2022,-0.203,-0.2036,-0.199,-0.1991,-0.1986,-0.1986,-0.1986,0,-0.1319,-0.1351,-0.1373,-0.1422,-0.1453,-0.1496,-0.1501,-0.1538,-0.1589,-0.1592,-0.1696,-0.1713,-0.1731,-0.1793,-0.1818,-0.1802,-0.1867,-0.1867,-0.1874,-0.1858,-0.1851,-0.186,-0.1868,-0.1764,-0.1763,-0.1763,0,0,-0.1312,-0.1352,-0.138,-0.142,-0.1436,-0.1479,-0.1505,-0.1531,-0.1571,-0.1602,-0.1645,-0.1683,-0.1715,-0.1742,-0.1758,-0.1806,-0.1766,-0.1843,-0.1853,-0.1862,-0.1852,-0.1847,-0.1856,-0.1762,-0.1762,-0.1761,0,0,-0.1301,-0.1346,-0.1365,-0.1419,-0.1438,-0.1476,-0.1511,-0.154,-0.1599,-0.1619,-0.1642,-0.165,-0.1704,-0.1698,-0.1677,-0.1769,-0.172,-0.1724,-0.1793,-0.1806,-0.1816,-0.1802,-0.1668,0,0,0,0,0,-0.1294,-0.1332,-0.1349,-0.1361,-0.1439,-0.1461,-0.1473,-0.1526,-0.1562,-0.1586,-0.1631,-0.1627,-0.1698,-0.168,-0.1683,-0.1739,-0.1742,-0.1745,-0.1749,-0.1846,-0.186,-0.1871,0,0,0,0,0,0,-0.1298,-0.1313,-0.1347,-0.1383,-0.14,-0.1462,-0.1494,-0.151,-0.1561,-0.157,-0.1622,-0.1627,-0.1635,-0.1677,-0.168,-0.1734,-0.1667,-0.1743,-0.1746,-0.1749,-0.1851,-0.1862,-0.1871,0,0,0,0,0,-0.1302,-0.1313,-0.143,-0.1384,-0.1399,-0.1464,-0.1496,-0.1509,-0.1568,-0.1579,-0.1589,-0.1608,-0.1634,-0.1639,-0.1679,-0.1734,-0.1664,-0.1666,-0.1745,-0.1748,-0.175,-0.1856,0,0,0,0,0,0,-0.1305,-0.1338,-0.1434,-0.144,-0.1387,-0.1464,-0.148,-0.1508,-0.1576,-0.1586,-0.156,-0.1565,-0.1633,-0.1637,-0.1641,-0.1736,-0.1663,-0.1664,-0.1665,-0.1747,-0.1749,-0.175,0,0,0,0,0,0,-0.1332,-0.1344,-0.1438,-0.1439,-0.1446,-0.1463,-0.1477,-0.1485,-0.1575,-0.1556,-0.1561,-0.1561,-0.1607,-0.1636,-0.1639,-0.1651,-0.1661,-0.1663,-0.1663,-0.1664,-0.1749,-0.175,0,0,0,0,0,0,-0.1337,-0.1348,-0.1439,-0.1444,-0.1451,-0.1528,-0.147,-0.1542,-0.1598,-0.1551,-0.1601,-0.1602,-0.1603,-0.1609,-0.1637,-0.1648,-0.165,-0.1661,-0.1662,-0.1663,-0.1663,0,0,0,0,0,0,0,-0.1342,-0.1263,-0.1389,-0.1448,-0.1454,-0.1493,-0.1495,-0.1498,-0.1599,-0.16,-0.1601,-0.1602,-0.1655,-0.1656,-0.1658,-0.1645,0,0,-0.1661,-0.1662,0,0,0,0,0,0,0,0,-0.126,-0.1263,-0.1389,-0.139,-0.139,-0.1493,-0.1495,-0.1497,-0.1599,-0.16,-0.16,-0.1601,-0.1655,-0.1656,-0.1657,0,0,0,0,0,0,0,0,0,0,0,0,0,0,0,-0.1389,-0.139,0,-0.1493,-0.1495,-0.1497,-0.1599,-0.16,-0.16,-0.1601,-0.1656,-0.1657,-0.1657,0,0,0,0,0,0,0,0,0,0,0,0,0,0,0,0,0,0,0,0,0,0,0,0,0,0,0,0,0,0,0,0,0,0,0,0,0,0,0,0,0,0,0,0,0,0,0,0,0,0,0,0,0,0,0,0,0,0,0,0,0,0,0,0,0,0,0,0,0]}],[{"header":{"parameterUnit":"kt","parameterCategory":2,"dx":1,"dy":1,"la1":30.253999710083008,"la2":30.299108505249023,"lo1":-89.0895004272461,"lo2":-89.04439544677734,"nx":28,"ny":28,"refTime":"2022-09-18T21:00:00:Z","depth":"4","parameterNumber":3,"parameterNumberName":"V-component_of_CURRENTS"},"data":[-0.0893,-0.096,-0.0991,-0.109,-0.1148,-0.1234,-0.1248,-0.1237,-0.1151,-0.1096,-0.0895,-0.0762,-0.0402,-0.0636,-0.003,0.0046,0.0205,0.0511,0.0519,0.072,0.0712,0.0705,0.0615,0,0,0,0,0,-0.0875,-0.0921,-0.0997,-0.1078,-0.1161,-0.1202,-0.1238,-0.1239,-0.1215,-0.1107,-0.1071,-0.0848,-0.0453,-0.0329,-0.0027,-0.0027,0.035,0.0338,0.0504,0.0715,0.0707,0.0621,0,0,0,0,0,0,-0.0862,-0.0907,-0.0969,-0.1039,-0.1124,-0.1175,-0.1196,-0.1173,-0.1167,-0.1111,-0.1066,-0.0862,-0.0766,-0.0373,-0.0058,0.0228,0.0328,0.0465,0.0471,0.0465,0.0363,0.0267,0.0396,0,0,0,0,0,-0.0834,-0.0869,-0.092,-0.1004,-0.1069,-0.1134,-0.1185,-0.1185,-0.1185,-0.1192,-0.1076,-0.0883,-0.0673,-0.037,-0.0062,0.0282,0.042,0.0553,0.0551,0.0572,0.0521,0.0533,0.0514,0.0674,0.0673,0.0673,0.0672,0,-0.08,-0.0834,-0.0917,-0.0964,-0.1002,-0.1068,-0.111,-0.1127,-0.1139,-0.1124,-0.1109,-0.0993,-0.0886,-0.0403,-0.0149,0.0296,0.0387,0.0528,0.0549,0.0505,0.0523,0.0505,0.0489,0.0665,0.0666,0.0666,0.0667,0,-0.0783,-0.0812,-0.0877,-0.0936,-0.0963,-0.1013,-0.1071,-0.1096,-0.1096,-0.1088,-0.1085,-0.1003,-0.0794,-0.0539,-0.0205,0.0014,0.0312,0.0436,0.0258,0.0278,0.0484,0.047,0.0654,0.0656,0.0659,0.066,0.0662,0,-0.0756,-0.0806,-0.0855,-0.0877,-0.0949,-0.096,-0.1018,-0.1016,-0.1007,-0.0998,-0.093,-0.0881,-0.0653,-0.0477,-0.0222,0.0089,0.0078,0.0335,0.0372,0.0238,0.0226,0.024,0.0226,0.0347,0.0345,0.0344,0.0343,0,-0.0728,-0.0779,-0.0834,-0.0842,-0.0877,-0.0909,-0.0928,-0.0912,-0.0911,-0.0875,-0.0874,-0.0716,-0.0655,-0.0426,-0.018,-0.018,0.0103,0.0124,0.0315,0.0317,0.0228,0.0216,0.0342,0.0342,0.0341,0.0341,0.034,0,-0.0699,-0.0723,-0.0779,-0.0825,-0.0832,-0.0858,-0.0878,-0.0876,-0.0822,-0.0796,-0.071,-0.0651,-0.0501,-0.042,-0.0158,-0.0227,-0.0069,0.0049,0.0057,0.0075,0.0082,0.0055,0.0148,0.0146,0.0143,0.0141,0.014,0,-0.067,-0.0707,-0.0706,-0.0753,-0.0768,-0.075,-0.0754,-0.0736,-0.0707,-0.0684,-0.0553,-0.0524,-0.0415,-0.0397,-0.0269,-0.0167,-0.0044,-0.0128,0.0023,0.0027,0.0047,0.0141,-0.005,0.0111,0.0115,0.0117,0.0119,0,-0.0631,-0.0643,-0.065,-0.0669,-0.0662,-0.0674,-0.0665,-0.0655,-0.0656,-0.058,-0.0568,-0.0445,-0.0401,-0.0374,-0.0308,-0.0205,-0.0083,-0.019,-0.0186,-0.0128,0.0077,0.0103,0.0122,-0.0062,-0.006,-0.0058,0.0099,0,-0.0595,-0.0611,-0.0618,-0.0623,-0.0628,-0.0642,-0.0613,-0.0603,-0.0576,-0.0548,-0.0497,-0.0429,-0.0393,-0.034,-0.032,-0.023,-0.0233,-0.0228,-0.0229,-0.0185,-0.0124,-0.0108,-0.0303,-0.0304,-0.0304,-0.0305,0,0,-0.0563,-0.0578,-0.0559,-0.0566,-0.0573,-0.0545,-0.0567,-0.0538,-0.0528,-0.0519,-0.0505,-0.0434,-0.04,-0.0342,-0.0319,-0.0312,-0.0282,-0.0323,-0.0217,-0.0208,-0.0199,-0.0138,-0.0122,-0.0306,-0.0306,-0.0306,-0.0306,0,-0.0548,-0.0533,-0.0552,-0.0547,-0.0544,-0.0533,-0.0536,-0.0517,-0.0502,-0.05,-0.0471,-0.0427,-0.0422,-0.0375,-0.0355,-0.0325,-0.03,-0.0321,-0.0304,-0.0224,-0.0214,-0.0205,-0.0143,-0.0128,-0.0308,-0.0307,-0.0307,0,-0.0517,-0.0512,-0.0521,-0.0515,-0.0507,-0.0511,-0.0485,-0.0488,-0.0487,-0.0473,-0.0464,-0.0442,-0.0422,-0.0399,-0.0392,-0.0394,-0.0311,-0.0358,-0.0355,-0.0371,-0.029,-0.0279,-0.0269,-0.0397,-0.0397,-0.0397,0,0,-0.0504,-0.0515,-0.0503,-0.0512,-0.0506,-0.0487,-0.0482,-0.0478,-0.0472,-0.0468,-0.0458,-0.0443,-0.0425,-0.0418,-0.0416,-0.0398,-0.0371,-0.0369,-0.0365,-0.0361,-0.0374,-0.0294,-0.0283,-0.0398,-0.0398,-0.0398,0,0,-0.0501,-0.0497,-0.0493,-0.0494,-0.0494,-0.0474,-0.0473,-0.0459,-0.0453,-0.0454,-0.0442,-0.0443,-0.0436,-0.0434,-0.0448,-0.0396,-0.0413,-0.0411,-0.0391,-0.0386,-0.0382,-0.04,-0.0439,0,0,0,0,0,-0.0496,-0.0499,-0.0496,-0.0495,-0.0477,-0.0476,-0.0472,-0.0458,-0.044,-0.0447,-0.044,-0.0435,-0.0434,-0.0447,-0.0447,-0.0411,-0.041,-0.0408,-0.0406,-0.0377,-0.0372,-0.0367,0,0,0,0,0,0,-0.0495,-0.0494,-0.0495,-0.0477,-0.0473,-0.0475,-0.0455,-0.045,-0.0441,-0.044,-0.0434,-0.0435,-0.0433,-0.0446,-0.0446,-0.0412,-0.0439,-0.0409,-0.0408,-0.0406,-0.0376,-0.0371,-0.0367,0,0,0,0,0,-0.0495,-0.0494,-0.0474,-0.0476,-0.0472,-0.0454,-0.0455,-0.0451,-0.0441,-0.0439,-0.0438,-0.0433,-0.0433,-0.0433,-0.0446,-0.0411,-0.0438,-0.0438,-0.0408,-0.0407,-0.0406,-0.0373,0,0,0,0,0,0,-0.0494,-0.0481,-0.0472,-0.047,-0.0481,-0.0454,-0.0451,-0.0452,-0.044,-0.0439,-0.0438,-0.0438,-0.0432,-0.0433,-0.0434,-0.041,-0.0438,-0.0438,-0.0438,-0.0407,-0.0406,-0.0405,0,0,0,0,0,0,-0.0482,-0.048,-0.047,-0.0478,-0.0476,-0.0454,-0.0452,-0.0452,-0.0442,-0.0441,-0.044,-0.0439,-0.0445,-0.0433,-0.0433,-0.0432,-0.0438,-0.0438,-0.0438,-0.0438,-0.0406,-0.0405,0,0,0,0,0,0,-0.048,-0.0478,-0.0478,-0.0477,-0.0475,-0.0445,-0.0455,-0.0444,-0.0426,-0.0442,-0.0427,-0.0427,-0.0446,-0.0446,-0.0433,-0.0432,-0.0432,-0.0438,-0.0438,-0.0438,-0.0438,0,0,0,0,0,0,0,-0.0479,-0.0501,-0.049,-0.0476,-0.0474,-0.0448,-0.0447,-0.0446,-0.0426,-0.0426,-0.0427,-0.0427,-0.0438,-0.0438,-0.0438,-0.0431,0,0,-0.0438,-0.0438,0,0,0,0,0,0,0,0,-0.0501,-0.0501,-0.049,-0.0489,-0.0489,-0.0448,-0.0447,-0.0446,-0.0426,-0.0426,-0.0427,-0.0427,-0.0438,-0.0438,-0.0438,0,0,0,0,0,0,0,0,0,0,0,0,0,0,0,-0.049,-0.0489,0,-0.0448,-0.0447,-0.0446,-0.0426,-0.0426,-0.0427,-0.0427,-0.0438,-0.0438,-0.0438,0,0,0,0,0,0,0,0,0,0,0,0,0,0,0,0,0,0,0,0,0,0,0,0,0,0,0,0,0,0,0,0,0,0,0,0,0,0,0,0,0,0,0,0,0,0,0,0,0,0,0,0,0,0,0,0,0,0,0,0,0,0,0,0,0,0,0,0,0]}]]]